FREGAT DEB, 45635

Orbit data source: Space-Track

FREGAT DEB, 45635 is space debris in LEO originally from a launch on Mon, 18 Jul 2011 UTC launched from the Tyuratam Missile And Space Complex (TTMTR). Debris objects in space refer to the collection of defunct objects orbiting the Earth. Examples of debris include non-operational satellites, rocket bodies, and fragments generated from explosions, collisions, or faulty payload assembly.

Loading next visibility...
Identifier
45635, 2011-037AB
Orbit
LEO
Last TLE update
1 day ago
Origin
Manufacturer
Lavochkin
Mission
Spacecraft
Bus & Motor
Unknown
Mass
Unknown
Launch date (UTC)
2011-07-18 (14 years ago)
Launch vehicle
Unknown
Launch site
Tyuratam Missile And Space Complex (TTMTR)
Object type
Payload
Rocket body
Debris
Shape & HBR
Unknown
Radar Cross Section
Small (<0.1 m²)

Expand to show TLE details & history

TLE from 1 day ago
0 FREGAT DEB
1 45635U 11037AB  25118.69205568  .00122986  00000-0  21728-1 0  9992
2 45635  51.2894   8.7499 1117235 345.4394  11.6587 12.88864510206125
Epoch: 2025-04-28T16:36Z
Definitive object data (Epoch: 2025-04-28T16:36:33.61Z)
Latitude
0.00002°
Longitude
-97.29256°
Altitude
470.589 km
Speed
8.036 km/s
True Right ascension
00h 34m 59s
True Declination
0° 00' 00"
Sunlit
Object was in daylight at TLE epoch
Visualization TLE readout
Latitude
50.20832°
Longitude
4.99962°
Altitude
1,543 km
Speed
6.992 km/s
Apparent Right ascension
02h 26m 06s
Apparent Declination
60° 31' 40"
Sunlit
Object is in daylight
Visualization observer readout
Local Sidereal Time
08:15:21
Azimuth
323.031° NNW
Elevation
35.192°
Doppler factor
1
Orbital elements
Apogee altitude
2,165.104 km
Perigee altitude
447.985 km
Semi-major axis
7,684.681 km
Eccentricity
0.1117235
Inclination
51.2894°
RAAN
8.7499°
Arg. of periapsis
345.4394°
True anomaly
14.6513°
Mean anomaly
11.6587°
Eccentric anomaly
13.11073°
Mean motion
3.22184 °/min
BSTAR
0.021728
Orbital period
111.74 mins
Loading maneuver chart data...
Loading SW <> Apogee altitude chart data...
Loading historical data...
Loading historical data...
Loading historical data...
Loading historical data...
Loading historical data...
Loading historical data...
Loading historical data...

FREGAT DEB Visibility forecast

Observer location: undefined°, undefined°

Span
Click to sort rows by Start time (UTC) header in descending order
Start Az.
Max El. time (UTC)
Max El. Az.
Max El.
End time (UTC)
End Az.
16 mins2025-04-30 00:42:56.868Z322.837° NNW2025-04-30 00:46:56.868Z17.934° NNE41.049°2025-04-30 00:58:56.868Z106.156° ESE
21 mins2025-04-30 02:36:56.868Z300.44° NW2025-04-30 02:45:56.868Z215.35° SW42.12°2025-04-30 02:57:56.868Z147.655° SSE
15 mins2025-04-30 04:35:56.868Z277.1° WNW2025-04-30 04:42:56.868Z237.229° WSW20.361°2025-04-30 04:50:56.868Z198.035° SSW
9 mins2025-04-30 19:01:56.868Z220.935° SW2025-04-30 19:04:56.868Z134.286° SE44.106°2025-04-30 19:10:56.868Z55.785° ENE
12 mins2025-04-30 20:57:56.868Z282.852° WNW2025-04-30 21:02:56.868Z357.272° N33.058°2025-04-30 21:09:56.868Z53.812° ENE
15 mins2025-04-30 22:55:56.868Z310.919° NW2025-04-30 23:00:56.868Z5.43° NNE33.047°2025-04-30 23:10:56.868Z78.326° E
|